Flag for U.S.A. Weather past 2 weeks in Pittsburgh, Pennsylvania, U.S.A.

Now
70 °F

Clear.


Feels Like: 74 °F
Forecast: 60 / 76 °F
Wind: 7 mph from South

Location: Allegheny County Airport

Current Time: Sep 20, 2014 at 10:05:44 PM

Latest Report: Sep 20, 2014 at 8:53 PM


Visibility: 10 mi

Pressure: 29.98 "Hg

Humidity: 68%

Dew point: 59 °F

Location of PittsburghLocation

Historic Weather in Pittsburgh — Graph

°F

Pittsburgh temperature yesterday

Maximum temperature yesterday: 72 °F (at 4:53 PM)
Minimum temperature yesterday: 50 °F (at 5:53 AM)
Average temperature yesterday: 61 °F

Past Weeks' High & Low Weather Summary

 TemperatureHumidityPressure
High83 °F (Sep 10, 2:53 PM)97% (Sep 14, 7:53 AM)30.36 "Hg (Sep 14, 7:53 AM)
Low45 °F (Sep 14, 6:53 AM)37% (Sep 18, 2:53 PM)29.77 "Hg (Sep 11, 4:53 AM)
Average63 °F70%30.11 "Hg
* Reported Sep 5 8:53 PM — Sep 20 8:53 PM, Pittsburgh, Weather by CustomWeather, © 2014

Note: Actual official high and low records may vary slightly from our data, if they occured in-between our weather recording intervals... More about our weather records

Advertising

Pittsburgh weather history for previous 24 hours

 ConditionsComfort  
Time TempWeatherWind HumidityBarometerVisibility
8:53 PM
Sep 20
70 °FClear.7 mph68%29.98 "Hg10 mi
7:53 PM72 °FSunny.7 mph64%29.96 "Hg10 mi
6:53 PM74 °FSunny.9 mph60%29.97 "Hg10 mi
5:53 PM77 °FPartly sunny.9 mph54%29.98 "Hg10 mi
4:53 PM78 °FPassing clouds.8 mph50%30.00 "Hg10 mi
3:53 PM77 °FPartly sunny.10 mph52%30.03 "Hg10 mi
2:53 PM76 °FBroken clouds.9 mph54%30.05 "Hg10 mi
1:53 PM77 °FScattered clouds.13 mph52%30.07 "Hg10 mi
8:53 AM63 °FSunny.9 mph73%30.15 "Hg8 mi
7:53 AM60 °FPassing clouds.6 mph78%30.16 "Hg10 mi
6:53 AM59 °FPassing clouds.9 mph78%30.14 "Hg9 mi
5:53 AM59 °FPassing clouds.9 mph78%30.14 "Hg9 mi
4:53 AM59 °FPassing clouds.9 mph78%30.13 "Hg9 mi
3:53 AM59 °FPassing clouds.9 mph78%30.14 "Hg10 mi
2:53 AM59 °FPassing clouds.8 mph78%30.15 "Hg10 mi
1:53 AM59 °FClear.9 mph78%30.15 "Hg10 mi
12:53 AM60 °FClear.7 mph75%30.16 "Hg10 mi
11:53 PM
Sep 19
61 °FClear.8 mph72%30.16 "Hg10 mi
10:53 PM62 °FClear.10 mph70%30.16 "Hg10 mi
Weather by CustomWeather, © 2014

See weather overviewHow to use our weather pages